Tracking 27188 objects as of 1-Apr-2023
HD Live streaming from Space Station
objects crossing your sky now

CNCE3

Track CNCE3 now!
10-day predictions


NORAD ID: 48874
Int'l Code: 2021-058D
Perigee: 433.7 km
Apogee: 476.1 km
Inclination: 60.7 °
Period: 93.5 minutes
Semi major axis: 6825 km
RCS: Unknown
Launch date: June 30, 2021
Source: United States (US)
Launch site: Pegasus launched from Western Range Air Space (WRAS)
Your satellite tracking list
Your tracking list is empty




NASA's NSSDC Master Catalog

Two Line Element Set (TLE):
1 48874U 21058D   23091.21365266  .00077257  00000-0  19106-2 0  9990
2 48874  60.7039 339.8674 0031092  66.5580 293.8779 15.39449767 97515
Source of the keplerian elements: AFSPC